Regional Weather Roundup
Issued by NWS

Home | Current Version | Previous Version | Text Only | Print | Product List | Glossary Off
Versions: 1 2 3 4 5 6 7 8 9 10 11 12 13 14 15 16 17 18 19 20 21 22 23 24 25 26 27 28 29 30 31 32 33 34 35 36 37 38 39 40 41 42 43 44 45 46 47 48 49 50

000
ASUS43 KFSD 301502
RWRSD

WEATHER ROUNDUP FOR SOUTH DAKOTA
NATIONAL WEATHER SERVICE SIOUX FALLS SD
1000 AM CDT SAT MAY 30 2015

NOTE: "FAIR" INDICATES FEW OR NO CLOUDS BELOW 12,000 FEET WITH NO
SIGNIFICANT WEATHER AND/OR OBSTRUCTIONS TO VISIBILITY.


SDZ001>005-009-010-012>017-301600-
NORTHWEST AND NORTH CENTRAL SOUTH DAKOTA

CITY           SKY/WX    TMP DP  RH WIND       PRES   REMARKS
BUFFALO          N/A     50  37  61 SE20      30.20F
FAITH            N/A     48  38  68 SE15      30.31F
MOBRIDGE       SUNNY     46  31  55 E9        30.36F
$$

SDZ012>016-024>037-041>051-057-063-072>074-301600-
SOUTHWEST AND SOUTH CENTRAL SOUTH DAKOTA

CITY           SKY/WX    TMP DP  RH WIND       PRES   REMARKS
RAPID CTY ARPT MOSUNNY   50  40  68 S16       30.28F
PIERRE         SUNNY     47  36  65 NE7       30.36S
CUSTER         CLOUDY    38  37  97 SW7       30.27F FOG
ELLSWORTH AFB  MOSUNNY   50  40  70 S18       30.27F
PHILIP         MOSUNNY   49  39  68 S7        30.33F
PINE RIDGE     MOSUNNY   49  38  65 S3        30.31S
WINNER         FAIR      49  33  54 NE12      30.34S
$$

SDZ004>011-016>023-039-040-301600-
NORTHEAST SOUTH DAKOTA

CITY           SKY/WX    TMP DP  RH WIND       PRES   REMARKS
ABERDEEN       SUNNY     44  32  62 N15       30.38F
WATERTOWN      SUNNY     46  37  71 NE13      30.30S
BROOKINGS      SUNNY     46  37  71 N14       30.30S
SISSETON         N/A     44  38  79 NE14      30.35S
$$

SDZ017-020-022-023-036>040-048>070-301600-
SOUTHEAST SOUTH DAKOTA

CITY           SKY/WX    TMP DP  RH WIND       PRES   REMARKS
SIOUX FALLS    MOSUNNY   50  41  71 NE15      30.28R
HURON          SUNNY     47  35  63 N14       30.34S
CHAMBERLAIN    SUNNY     46  35  64 NE9       30.34F
MITCHELL       SUNNY     49  40  71 N15       30.32F
YANKTON        SUNNY     52  39  62 N13       30.28S
$$

ABBREVIATIONS USED IN REMARKS
   TC - TEMPERATURE IN CELSIUS
  WCI - WIND CHILL INDEX
   HX - HEAT INDEX
  VSB - VISIBILITY




USA.gov is the U.S. government's official web portal to all federal, state and local government web resources and services.